Location: Dehesa de la Cepeda
(40.6574°N, 4.3013°W)
Time: 20:45:13
(UTC+00:00)

Vanguard 2 Rocket - Pass Details

Date: 09 August 2021
Orbit: 556 x 3324 km, 32.9° (Epoch: 19 September)

Event Time Altitude Azimuth Distance (km) Brightness Sun altitude
Rises 08:55:40 0° 262° (W) 2,927 9.1 38.9°
Reaches altitude 10° 08:58:38 10° 242° (WSW) 1,873 8.3 39.5°
Maximum altitude 09:01:26 18° 197° (SSW) 1,382 8.0 40.0°
Drops below altitude 10° 09:04:14 10° 152° (SSE) 1,865 9.2 40.5°
Sets 09:07:11 0° 133° (SE) 2,908 10.2 41.1°
